Location: Academy at Carrie F Thomas
(32.8490°N, 97.2053°W)
Time: 20:35:01
(UTC+00:00)

Cosmos 1515 Rocket - Pass Details

Date: 29 June 2022
Orbit: 604 x 630 km, 82.5° (Epoch: 17 August)

Event Time Altitude Azimuth Distance (km) Brightness Sun altitude
Rises 10:42:00 0° 337° (NNW) 2,896 7.2 -8.3°
Reaches altitude 10° 10:44:34 10° 324° (NW) 1,981 6.1 -7.8°
Maximum altitude 10:48:03 23° 271° (W) 1,297 4.8 -7.2°
Drops below altitude 10° 10:51:30 10° 218° (SW) 1,958 5.5 -6.6°
Enters shadow 10:52:51 - 209° (SSW) 2,419 6.0 -6.4°
